Погода в Касане

Узбекистан     39°02′29″N   65°35′07″E
темп.,
°C
ветер,
м/с
пор.,
м/с
влажн.,
%
обл.,
%
осадки,
мм/ч
давл.,
гПа
погр.,
м
6 марта, сб
сб623:00+12св575564 0.0 1016135
02:00+12всв6852100 0.0 1013120
05:00+12всв5854100 0.1 1010150
08:00+9сз3372100 1.6 101086
11:00+10св5788100 9.2 1011185
14:00+11в2484100 1.0 1012412
17:00+10зюз7992100 2.6 1014533
20:00+6зюз91288100 2.4 1018537
7 марта, вс
вс723:00+5зюз5887100 2.8 1021461
02:00+4зсз4591100 0.8 1022319
05:00+4ссз3391100 0.9 1022239
08:00+4ссз2386100 0.1 1022295
11:00+5юз1278100 0.1 1022475
14:00+10ююв355594 0.0 10201158
17:00+11ююз454455 0.0 10171223
20:00+9св11610 0.0 101822
8 марта, пн
пн823:00+8в34620 0.0 101746
02:00+8вюв336956 0.0 101733
05:00+8в347078 0.0 101740
08:00+9в3365100 0.0 101854
11:00+13в1246100 0.0 1019353
14:00+16юз3437100 0.0 10181186
17:00+17ююз1336100 0.0 10171147
20:00+14в224898 0.0 101823
9 марта, вт
вт923:00+12в345296 0.0 101844
02:00+11в345594 0.0 101652
05:00+12всв345397 0.0 101361
08:00+13всв5847100 0.0 1012136
11:00+18всв4631100 0.0 1010373
14:00+21вюв1222100 0.0 10081282
17:00+21ююз2324100 0.0 1007603
20:00+18вюв5735100 0.0 1007130
10 марта, ср
ср1023:00+17вюв4435100 0.0 100758
02:00+14зюз3445100 0.1 100854
05:00+11зсз486767 0.4 1011175
08:00+10сз5115744 0.3 1016610
11:00+9зсз357472 0.8 1018423
14:00+15з563762 0.0 10191728
17:00+14зсз653131 0.0 10191682
20:00+11сз343866 0.0 102093